Location: İstanbul
(41.0082°N, 28.9784°E)
Time: 01:22:14
(UTC+03:00)

ITUPSAT 1 - Pass Details

Date: 30 April 2024
Orbit: 694 x 707 km, 98.5° (Epoch: 28 May)

Event Time Altitude Azimuth Distance (km) Brightness Sun altitude
Rises 23:13:03 0° 12° (NNE) 3,082 ? -28.5°
Reaches altitude 10° 23:15:18 10° 12° (NNE) 2,160 ? -28.7°
Enters shadow 23:18:50 51° 6° (N) 874 ? -29.1°
